SBBR

Brasília International Airport/President Juscelino Kubitschek

Airport
ICAO code
SBBR
IATA Code
BSB
Summary
ICAO Region
CARSAM
ICAO Territory
Location

Lago Sul, Federal District

Serving
Brasilia
Elevation
3479 ft
Coordinates
15° 51' 46" S , 47° 54' 46" W
KCC
Airport RE
Hot and High Operations
Metar
Observation
SBBR 311900Z 08009KT 040V110 9999 SCT040 FEW045TCU SCT100 29/14 Q1015
Station
Brasilia Aeroporto
Date/Time
2023-01-31 19:00:00
Wind direction
80°
Wind speed
09 kts
Lowest cloud amount
scattered clouds
Temperature
29°C
Dew point
14°C
Humidity
39%
QNH
1015 hPa
Weather condition
n/a

Brasília's International airport.

Climatology

Tropical Savanna climate (Köppen climate classification Aw)

Runways

Designator Length Width Surface Rops
11L/29R 3200 45 ASP Yes/Yes
11R/29L 3300 45 ASP Yes/Yes

Airport map

Aerial View

SKYbrary Partners:

Safety knowledge contributed by: